Waarnemingen

Advertentie
Mijn weer
Lerwick, Groot Brittannië (3005): temperatuur & dauwpunt: 18.02.2018 21:00:00 - 24.02.2018 21:00:00 (GMT)Lerwick, Groot Brittannië (3005): temperatuur -20cm & temperatuur -100cm: 18.02.2018 21:00:00 - 24.02.2018 21:00:00 (GMT)Lerwick, Groot Brittannië (3005): windsnelheid & windstoten: 18.02.2018 21:00:00 - 24.02.2018 21:00:00 (GMT)Lerwick, Groot Brittannië (3005): windrichting: 18.02.2018 21:00:00 - 24.02.2018 21:00:00 (GMT)Lerwick, Groot Brittannië (3005): luchtdruk: 18.02.2018 21:00:00 - 24.02.2018 21:00:00 (GMT)Lerwick, Groot Brittannië (3005): zicht: 18.02.2018 21:00:00 - 24.02.2018 21:00:00 (GMT)Lerwick, Groot Brittannië (3005): Zonneschijnduur: 18.02.2018 21:00:00 - 24.02.2018 21:00:00 (GMT)Lerwick, Groot Brittannië (3005): neerslag: 18.02.2018 21:00:00 - 24.02.2018 21:00:00 (GMT)
Datum & Tijd tt [°C] td [°C] tt -20cm [°C] tt -100cm [°C] ff [km/u] ff [kn] fx [km/u] fx [kn] dd ppp [hPa] vv [km] sd [min] rr [mm]
24.02.2018 21:00:00 4,6 -0,3 - - 35 19 52 28 Z 1031,2 18 0 0,0
24.02.2018 20:00:00 4,7 0,3 - - 41 22 54 29 Z 1030,6 18 0 0,0
24.02.2018 19:00:00 4,6 0,0 - - 42 23 55 30 Z 1030,3 20 0 0,0
24.02.2018 18:00:00 4,6 -0,1 - - 41 22 57 31 Z 1029,8 20 0 0,0
24.02.2018 17:00:00 4,6 -0,1 - - 44 24 57 31 Z 1029,6 18 18 0,0
24.02.2018 16:00:00 5,2 -0,1 - - 44 24 59 32 Z 1029,2 14 36 0,0
24.02.2018 15:00:00 5,1 0,2 - - 44 24 59 32 Z 1028,8 18 60 0,0
24.02.2018 14:00:00 5,3 0,5 - - 44 24 63 34 Z 1028,5 20 48 0,0
24.02.2018 13:00:00 5,8 0,2 - - 48 26 63 34 Z 1027,9 20 36 0,0
24.02.2018 12:00:00 5,4 0,1 - - 48 26 63 34 Z 1028,0 20 6 0,0
24.02.2018 11:00:00 5,1 0,3 - - 46 25 68 37 Z 1027,6 20 18 0,0
24.02.2018 10:00:00 4,8 0,6 - - 46 25 68 37 Z 1027,3 18 0 0,0
24.02.2018 09:00:00 4,4 -0,4 3,9 5,0 48 26 63 34 Z 1027,0 25 0 0,0
24.02.2018 08:00:00 4,3 -0,6 - - 48 26 65 35 Z 1026,5 30 0 0,0
24.02.2018 07:00:00 4,3 -0,7 - - 44 24 63 34 Z 1026,0 35 0 0,0
24.02.2018 06:00:00 4,4 -1,1 - - 44 24 65 35 Z 1025,5 35 0 0,0
24.02.2018 05:00:00 4,4 -0,3 - - 42 23 61 33 Z 1024,9 30 0 0,0
24.02.2018 04:00:00 4,6 -0,8 - - 48 26 63 34 Z 1024,4 25 0 0,0
24.02.2018 03:00:00 4,8 0,1 - - 44 24 63 34 Z 1024,2 18 0 0,0
24.02.2018 02:00:00 4,1 1,9 - - 50 27 68 37 Z 1023,9 12 0 0,0
24.02.2018 01:00:00 4,3 0,5 - - 46 25 59 32 Z 1023,5 30 0 0,2
24.02.2018 00:00:00 4,2 2,4 - - 46 25 65 35 Z 1023,5 7 - 0,0
23.02.2018 23:00:00 4,8 -1,2 - - 50 27 65 35 Z 1022,8 35 0 0,0
23.02.2018 22:00:00 4,6 -0,4 - - 46 25 65 35 Z 1022,7 35 0 0,0
23.02.2018 21:00:00 4,4 -0,2 - - 46 25 68 37 Z 1022,4 30 0 0,0
23.02.2018 20:00:00 4,4 0,2 - - 48 26 63 34 Z 1022,0 15 0 0,0
23.02.2018 19:00:00 4,6 0,6 - - 44 24 59 32 Z 1021,4 15 0 0,0
23.02.2018 18:00:00 4,3 0,7 - - 42 23 55 30 Z 1021,4 15 0 0,0
23.02.2018 17:00:00 4,1 0,2 - - 41 22 50 27 Z 1021,1 15 0 0,0
23.02.2018 16:00:00 4,3 0,3 - - 41 22 55 30 Z 1020,9 12 0 0,0
23.02.2018 15:00:00 4,1 0,7 - - 37 20 54 29 Z 1020,8 10 12 0,0
23.02.2018 14:00:00 4,5 0,6 - - 39 21 50 27 Z 1020,8 12 30 0,0
23.02.2018 13:00:00 4,6 0,6 - - 37 20 48 26 Z 1021,2 12 18 0,0
23.02.2018 12:00:00 5,1 0,3 - - 37 20 48 26 Z 1021,0 15 42 0,0
23.02.2018 11:00:00 4,8 0,8 - - 35 19 46 25 Z 1020,8 18 6 0,0
23.02.2018 10:00:00 4,7 1,3 - - 34 18 - - Z 1020,5 18 0 0,0
23.02.2018 09:00:00 4,0 0,8 3,9 5,0 24 13 - - ZZW 1020,5 18 0 0,0
23.02.2018 08:00:00 3,6 0,9 - - 24 13 - - ZZW 1020,4 15 0 0,0
23.02.2018 07:00:00 2,5 0,1 - - 18 10 - - ZZW 1020,4 25 0 0,0
23.02.2018 06:00:00 3,6 0,2 - - 28 15 - - ZZW 1020,4 20 0 0,0
23.02.2018 05:00:00 4,0 0,8 - - 29 16 - - ZZW 1020,0 19 0 0,0
23.02.2018 04:00:00 4,3 1,4 - - 29 16 - - Z 1020,1 18 0 0,0
23.02.2018 03:00:00 4,5 1,5 - - 29 16 46 25 Z 1020,4 18 0 0,0
23.02.2018 02:00:00 4,5 1,7 - - 31 17 52 28 Z 1020,5 18 0 0,0
23.02.2018 01:00:00 4,7 2,1 - - 34 18 48 26 Z 1020,3 18 0 0,0
23.02.2018 00:00:00 4,6 1,8 - - 34 18 52 28 ZZW 1020,4 25 - 0,0
22.02.2018 23:00:00 4,5 2,0 - - 34 18 54 29 Z 1020,4 18 0 0,0
22.02.2018 22:00:00 4,7 2,1 - - 37 20 50 27 Z 1020,4 18 0 0,0
22.02.2018 21:00:00 4,4 1,9 - - 39 21 54 29 Z 1020,6 25 0 0,0
22.02.2018 20:00:00 4,7 1,5 - - 39 21 57 31 Z 1020,9 22 0 0,0
22.02.2018 19:00:00 4,7 1,4 - - 39 21 55 30 Z 1020,9 22 0 0,0
22.02.2018 18:00:00 4,9 1,2 - - 46 25 59 32 Z 1021,1 22 0 0,0
22.02.2018 17:00:00 5,0 1,7 - - 46 25 59 32 Z 1021,0 22 18 0,0
22.02.2018 16:00:00 5,3 2,1 - - 41 22 59 32 Z 1021,2 22 6 0,0
22.02.2018 15:00:00 5,2 2,3 - - 41 22 61 33 Z 1021,6 25 0 0,0
22.02.2018 14:00:00 5,3 1,3 - - 44 24 55 30 Z 1022,0 22 12 0,0
22.02.2018 13:00:00 5,2 1,8 - - 41 22 57 31 Z 1022,5 25 18 0,0
22.02.2018 12:00:00 5,2 2,5 - - 39 21 57 31 Z 1022,7 25 30 0,0
22.02.2018 11:00:00 5,6 2,5 - - 41 22 55 30 Z 1022,9 22 60 0,0
22.02.2018 10:00:00 5,4 1,9 - - 42 23 54 29 Z 1023,3 22 36 0,0
22.02.2018 09:00:00 4,9 1,9 3,9 5,0 41 22 52 28 Z 1023,7 20 12 0,0
22.02.2018 08:00:00 4,7 2,1 - - 37 20 48 26 Z 1024,0 16 0 0,0
22.02.2018 07:00:00 4,5 1,9 - - 35 19 46 25 Z 1024,2 24 0 0,0
22.02.2018 06:00:00 4,3 1,8 - - 29 16 - - Z 1024,4 23 0 0,0
22.02.2018 05:00:00 4,1 2,2 - - 28 15 - - Z 1024,6 15 0 0,0
22.02.2018 04:00:00 3,8 2,3 - - 21 11 - - Z 1025,0 24 0 0,0
22.02.2018 03:00:00 3,7 1,9 - - 18 10 - - ZZW 1025,7 23 0 0,0
22.02.2018 02:00:00 4,4 2,4 - - 29 16 - - Z 1026,0 30 0 0,0
22.02.2018 01:00:00 4,2 2,4 - - 26 14 - - Z 1026,2 30 0 0,0
22.02.2018 00:00:00 2,7 1,8 - - 9 5 - - ZZW 1026,5 26 - 0,0
21.02.2018 23:00:00 2,0 1,6 - - 8 4 - - ZZW 1026,7 26 0 0,0
21.02.2018 22:00:00 1,8 0,9 - - 8 4 - - ZZW 1026,9 29 0 0,0
21.02.2018 21:00:00 1,6 0,9 - - 8 4 - - ZZW 1027,1 20 0 0,0
21.02.2018 20:00:00 1,0 0,3 - - 8 4 - - ZZW 1027,5 20 0 0,0
21.02.2018 19:00:00 2,8 1,3 - - 8 4 - - ZZW 1027,4 25 0 0,0
21.02.2018 18:00:00 2,6 1,3 - - 5 3 - - ZZW 1027,5 35 0 0,0
21.02.2018 17:00:00 3,9 1,6 - - 8 4 - - WZW 1027,1 30 42 0,0
21.02.2018 16:00:00 6,0 2,1 - - 13 7 - - ZW 1026,9 30 60 0,0
21.02.2018 15:00:00 7,1 2,9 - - 9 5 - - Z 1027,1 30 60 0,0
21.02.2018 14:00:00 6,6 2,7 - - 9 5 - - ZZW 1027,6 30 60 0,0
21.02.2018 13:00:00 7,5 1,7 - - 5 3 - - ZW 1027,8 40 60 0,0
21.02.2018 12:00:00 6,5 2,3 - - 9 5 - - WZW 1028,1 40 60 0,0
21.02.2018 11:00:00 6,4 1,4 - - 4 2 - - NW 1028,0 30 60 0,0
21.02.2018 10:00:00 4,8 1,9 - - 9 5 - - W 1028,2 30 60 0,0
21.02.2018 09:00:00 3,4 1,1 4,0 5,0 9 5 - - NNW 1028,3 25 36 0,0
21.02.2018 08:00:00 2,5 0,2 - - 11 6 - - NNW 1027,9 29 0 0,0
21.02.2018 07:00:00 3,5 0,4 - - 11 6 - - WNW 1027,9 30 0 0,0
21.02.2018 06:00:00 3,9 1,3 - - 9 5 - - WNW 1027,6 27 0 0,0
21.02.2018 05:00:00 3,1 1,0 - - 5 3 - - WNW 1027,4 22 0 0,0
21.02.2018 04:00:00 3,1 0,7 - - 13 7 - - WNW 1027,3 26 0 0,0
21.02.2018 03:00:00 3,7 1,1 - - 16 9 - - NW 1027,1 24 0 0,0
21.02.2018 02:00:00 3,5 1,6 - - 21 11 - - WNW 1027,2 21 0 0,0
21.02.2018 01:00:00 3,6 1,3 - - 15 8 - - WNW 1027,3 21 0 0,0
21.02.2018 00:00:00 3,6 1,4 - - 16 9 - - WNW 1027,0 22 - 0,0
20.02.2018 23:00:00 4,1 1,5 - - 21 11 - - WNW 1026,5 18 0 0,0
20.02.2018 22:00:00 4,3 2,1 - - 21 11 - - WNW 1026,1 18 0 0,0
20.02.2018 21:00:00 4,0 1,2 - - 18 10 - - WNW 1026,0 15 0 0,0
20.02.2018 20:00:00 4,0 1,3 - - 15 8 - - WNW 1025,5 12 0 0,0
20.02.2018 19:00:00 4,8 1,3 - - 16 9 - - WNW 1025,1 15 0 0,0
20.02.2018 18:00:00 5,2 2,6 - - 16 9 - - WNW 1024,4 12 0 0,0
20.02.2018 17:00:00 5,9 3,5 - - 15 8 - - WNW 1023,8 10 0 0,0
20.02.2018 16:00:00 6,2 3,1 - - 22 12 - - WNW 1023,0 15 36 0,0
20.02.2018 15:00:00 6,8 3,5 - - 21 11 - - WNW 1022,5 12 18 0,0
20.02.2018 14:00:00 6,9 2,7 - - 18 10 - - WNW 1022,2 18 30 0,0
20.02.2018 13:00:00 6,6 4,3 - - 21 11 - - WNW 1021,9 15 30 0,0
20.02.2018 12:00:00 6,9 5,7 - - 16 9 - - W 1021,3 15 36 0,2
20.02.2018 11:00:00 6,3 5,6 - - 16 9 - - WZW 1020,6 18 12 0,0
20.02.2018 10:00:00 5,4 4,9 - - 11 6 - - ZW 1020,0 12 0 0,0
20.02.2018 09:00:00 4,9 4,1 3,7 5,0 8 4 - - WZW 1019,4 12 0 0,0
20.02.2018 08:00:00 4,5 3,8 - - 2 1 - - W 1018,8 16 0 0,2
20.02.2018 07:00:00 4,5 4,0 - - 2 1 - - N 1018,3 10 0 0,0
20.02.2018 06:00:00 4,5 4,1 - - 8 4 - - ZO 1017,5 7 0 0,2
20.02.2018 05:00:00 4,4 4,0 - - 8 4 - - W 1017,1 13 0 1,6
20.02.2018 04:00:00 4,8 4,4 - - 22 12 - - W 1016,6 4,5 0 2,8
20.02.2018 03:00:00 5,1 4,9 - - 35 19 48 26 Z 1016,0 4,7 0 0,8
20.02.2018 02:00:00 5,3 5,0 - - 35 19 54 29 Z 1016,0 6 0 1,0
20.02.2018 01:00:00 5,2 4,8 - - 41 22 61 33 Z 1016,4 7 0 0,2
20.02.2018 00:00:00 5,1 4,7 - - 44 24 61 33 ZZO 1016,6 5 - 0,4
19.02.2018 23:00:00 5,0 4,4 - - 46 25 61 33 ZZO 1016,7 7 0 0,6
19.02.2018 22:00:00 4,9 4,3 - - 42 23 59 32 Z 1016,9 9 0 0,8
19.02.2018 21:00:00 5,3 4,9 - - 42 23 57 31 ZZO 1017,1 5 0 0,4
19.02.2018 20:00:00 5,5 4,5 - - 37 20 50 27 ZZO 1017,3 11 0 0,6
19.02.2018 19:00:00 5,4 4,6 - - 39 21 50 27 ZZO 1017,4 13 0 0,4
19.02.2018 18:00:00 5,5 4,6 - - 31 17 - - ZZO 1017,4 9 0 0,4
19.02.2018 17:00:00 5,5 4,3 - - 34 18 46 25 ZZO 1017,6 13 0 0,0
19.02.2018 16:00:00 5,6 4,2 - - 31 17 - - ZZO 1017,8 23 0 0,0
19.02.2018 15:00:00 5,9 3,8 - - 31 17 - - ZZO 1017,9 35 0 0,0
19.02.2018 14:00:00 5,9 3,9 - - 31 17 - - ZZO 1017,6 30 0 0,0
19.02.2018 13:00:00 5,9 3,6 - - 29 16 46 25 ZZO 1017,7 30 0 0,0
19.02.2018 12:00:00 5,7 3,0 - - 31 17 - - ZO 1017,4 35 0 0,0
19.02.2018 11:00:00 5,7 3,7 - - 34 18 46 25 ZO 1017,4 30 0 0,0
19.02.2018 10:00:00 5,8 4,1 - - 28 15 - - ZO 1017,2 40 12 0,0
19.02.2018 09:00:00 5,8 3,9 3,7 5,0 34 18 - - ZO 1017,2 30 42 0,0
19.02.2018 08:00:00 5,4 3,7 - - 31 17 - - ZO 1017,1 30 0 0,0
19.02.2018 07:00:00 5,1 3,1 - - 28 15 - - ZO 1016,8 45 0 0,0
19.02.2018 06:00:00 5,0 3,1 - - 24 13 - - ZO 1016,2 50 0 0,0
19.02.2018 05:00:00 5,0 3,3 - - 24 13 - - ZO 1016,0 45 0 0,0
19.02.2018 04:00:00 5,0 3,1 - - 26 14 - - ZO 1015,9 45 0 0,0
19.02.2018 03:00:00 4,9 3,3 - - 24 13 - - ZO 1016,0 50 0 0,0
19.02.2018 02:00:00 4,8 3,2 - - 22 12 - - ZO 1016,0 45 0 0,0
19.02.2018 01:00:00 4,7 3,2 - - 21 11 - - ZO 1016,1 35 0 0,0
19.02.2018 00:00:00 4,6 3,2 - - 21 11 - - ZO 1016,2 45 - 0,0
18.02.2018 23:00:00 4,5 3,0 - - 18 10 - - ZO 1016,2 50 0 0,0
18.02.2018 22:00:00 4,9 3,4 - - 16 9 - - ZO 1016,3 50 0 0,0
18.02.2018 21:00:00 3,8 2,7 - - 13 7 - - ZO 1016,4 50 0 0,0

tt = temperatuur
td = dauwpunt
tt -20cm = temperatuur -20cm
tt -100cm = temperatuur -100cm
ff = windsnelheid
fx = windstoten
dd = windrichting
ppp = luchtdruk
vv = zicht
sd = Zonneschijnduur
rr = neerslag

Weerstations in de omgeving